DateTimeUTC,F1_A11,F1_S11,BsB_S11,BsG_S11,BsR_S11,BbsB_S11,BbsG_S11,BbsR_S11,BaB_A11,BaG_A11,BaR_A11,Tu_S11,T_S11,Uu_S11,U_S11,P_S11,T1_A11
2021-03-18T13:00:00Z,00040200,20000000,,,,,,,0000.76,-000.75,-000.26,17.6,24.7,03.7,02.4,0648.0,31.0
2021-03-18T13:01:00Z,00040200,20000000,,,,,,,-000.34,0000.18,0000.08,17.6,24.7,03.7,02.4,0648.0,31.0
2021-03-18T13:02:00Z,00040200,20000000,,,,,,,0000.22,0000.54,0000.51,17.6,24.7,03.7,02.4,0648.0,31.0
2021-03-18T13:03:00Z,00040200,60000000,,,,,,,0000.45,0000.30,-000.23,17.6,24.7,03.7,02.4,0648.0,31.0
2021-03-18T13:04:00Z,00040200,40000000,0000.65,0000.19,0000.41,0000.10,0000.13,0000.10,0000.26,0000.11,0000.61,17.7,24.5,04.0,02.6,0648.8,31.0
2021-03-18T13:05:00Z,00040200,00000000,0000.76,0000.26,0000.18,0000.39,0000.01,0000.25,-000.31,-000.37,-000.39,17.7,24.5,03.9,02.6,0648.8,31.0
2021-03-18T13:06:00Z,00040200,00000000,0000.20,0000.41,0000.26,0000.50,-000.07,0000.00,0000.27,0000.12,-000.16,17.7,24.5,03.8,02.5,0648.9,31.0
2021-03-18T13:07:00Z,00040200,00000000,0000.76,0000.20,0000.20,0000.31,0000.05,0000.17,0000.73,0000.90,0000.57,17.7,24.5,03.9,02.6,0648.9,31.0
2021-03-18T13:08:00Z,00040200,00000000,-000.23,0000.18,0000.31,0000.17,0000.07,0000.37,-000.04,0000.17,0000.49,17.7,24.5,03.9,02.6,0648.8,31.0
2021-03-18T13:09:00Z,00040200,00000000,0000.69,-000.03,0000.38,-000.01,-000.12,0000.06,0000.25,-000.03,-000.02,17.7,24.4,04.2,02.8,0648.9,31.0
2021-03-18T13:10:00Z,00040200,00000000,0000.72,0000.37,0000.05,-000.16,-000.03,0000.06,-000.01,0000.44,0000.36,17.8,24.5,04.1,02.7,0648.8,31.0
2021-03-18T13:11:00Z,00040200,00000000,0000.78,0000.34,0000.25,0000.01,0000.12,0000.26,0000.82,0000.57,-000.05,17.7,24.4,04.2,02.8,0648.7,31.0
2021-03-18T13:12:00Z,00040200,00000000,0000.44,0000.07,0000.38,-000.07,0000.02,-000.04,-000.48,-000.51,0000.29,17.8,24.4,04.1,02.7,0648.8,31.0
2021-03-18T13:13:00Z,00040200,00000000,0000.69,0000.16,0000.53,0000.09,0000.04,0000.11,0000.42,0000.61,0000.25,17.8,24.4,04.3,02.8,0648.8,30.9
2021-03-18T13:14:00Z,00040200,00000000,0000.30,0000.24,0000.46,0000.17,0000.04,0000.18,0000.55,0000.35,0000.23,17.8,24.4,04.3,02.8,0648.6,31.0
2021-03-18T13:15:00Z,00040200,00000000,-000.10,0000.30,0000.23,0000.19,0000.17,0000.17,0000.07,0000.02,0000.21,17.8,24.4,04.2,02.8,0648.7,31.0
2021-03-18T13:16:00Z,00040200,00000000,0000.45,0000.09,0000.26,0000.13,-000.01,0000.32,-000.42,-000.55,-000.56,17.8,24.4,04.1,02.7,0648.7,31.0
2021-03-18T13:17:00Z,00040200,00000000,0000.57,0000.37,0000.40,-000.08,0000.12,-000.12,0000.37,0000.70,0000.72,17.8,24.4,04.2,02.8,0648.7,30.9
2021-03-18T13:18:00Z,00040200,00000000,0000.51,0000.21,0000.45,0000.31,0000.00,0000.12,0000.14,-000.01,-000.03,17.8,24.4,04.2,02.8,0648.7,30.9
2021-03-18T13:19:00Z,00040200,00000000,0000.50,0000.33,0000.26,-000.22,-000.05,0000.16,-000.06,-000.04,-000.02,17.8,24.4,04.1,02.7,0648.7,30.9
2021-03-18T13:20:00Z,00040200,00000000,0000.58,0000.11,0000.11,0000.41,0000.17,0000.05,0001.23,0000.94,0000.38,17.8,24.4,04.2,02.8,0648.7,30.9
2021-03-18T13:21:00Z,00040200,00000000,0001.12,0000.23,0000.57,0000.55,0000.08,0000.29,0000.03,-000.01,0000.32,17.8,24.4,04.2,02.8,0648.7,30.9
2021-03-18T13:22:00Z,00040200,00000000,-000.09,0000.42,0000.33,0000.33,0000.09,0000.21,-000.10,0000.09,0000.26,17.8,24.4,04.3,02.9,0648.6,30.9
2021-03-18T13:23:00Z,00040200,00000000,-000.13,0000.23,0000.14,0000.17,-000.19,0000.06,0001.02,0000.42,0000.41,17.8,24.4,04.3,02.9,0648.7,30.9
2021-03-18T13:24:00Z,00040200,00000000,0000.34,0000.24,0000.38,-000.19,-000.26,-000.14,-000.11,0000.36,0000.15,17.8,24.4,04.3,02.8,0648.7,30.9
2021-03-18T13:25:00Z,00040200,00000000,0000.69,0000.21,0000.18,0000.33,0000.16,0000.22,0002.09,0002.03,0001.60,17.8,24.4,04.4,02.9,0648.7,30.9
2021-03-18T13:26:00Z,00040200,00000000,0000.50,0000.25,0000.41,-000.15,0000.35,0000.19,0000.65,0000.54,0000.36,17.9,24.5,04.9,03.3,0648.7,31.0
2021-03-18T13:27:00Z,00040200,00000000,0000.15,0000.07,0000.35,0000.31,0000.21,0000.13,-001.00,-000.62,-000.92,18.0,24.5,05.0,03.4,0648.6,31.0
2021-03-18T13:28:00Z,00040200,00000000,0000.45,0000.18,0000.15,0000.32,0000.11,-000.15,0000.20,-000.10,0000.58,18.0,24.5,04.7,03.1,0648.5,31.0
2021-03-18T13:29:00Z,00040200,00000000,0000.52,0000.24,0000.11,0000.08,0000.01,0000.02,0000.28,0000.14,0000.39,18.0,24.5,04.5,03.0,0648.7,31.0
2021-03-18T13:30:00Z,00040200,00000000,0000.45,0000.22,0000.04,-000.04,-000.04,0000.04,-001.19,-000.59,-001.01,18.0,24.5,04.4,03.0,0648.7,31.0
2021-03-18T13:31:00Z,00040200,00000000,0000.24,0000.47,0000.22,0000.24,0000.09,0000.40,0000.27,-000.35,0000.21,18.0,24.5,04.3,02.9,0648.5,31.0
2021-03-18T13:32:00Z,00040200,00000000,0000.70,0000.16,0000.21,-000.08,0000.02,0000.14,-000.09,-000.01,-000.50,18.0,24.5,04.1,02.8,0648.6,31.0
2021-03-18T13:33:00Z,00040200,00000000,0000.52,0000.23,0000.36,-000.37,0000.02,0000.25,0001.07,0000.97,0000.81,18.0,24.5,04.3,02.9,0648.5,31.0
2021-03-18T13:34:00Z,00040200,00000000,0000.21,0000.27,0000.11,0000.24,-000.13,0000.13,-000.31,-000.41,-000.15,18.0,24.5,04.3,02.9,0648.5,31.0
2021-03-18T13:35:00Z,00040200,00000000,0000.59,0000.18,0000.09,0000.41,0000.23,0000.07,-000.02,0000.18,0000.11,17.9,24.5,04.3,02.8,0648.5,31.0
2021-03-18T13:36:00Z,00040200,00000000,0000.26,0000.07,0000.17,-000.14,0000.08,-000.25,0000.41,-000.11,-000.02,17.9,24.5,04.3,02.9,0648.5,31.0
2021-03-18T13:37:00Z,00040200,00000000,0000.87,0000.49,-000.12,0000.43,0000.17,-000.25,-000.08,0000.43,0000.04,17.9,24.5,04.2,02.8,0648.6,31.0
2021-03-18T13:38:00Z,00040200,00000000,0000.98,0000.62,0000.53,0000.23,-000.01,0000.05,0000.07,-000.04,0000.05,17.9,24.5,04.2,02.8,0648.5,31.0
2021-03-18T13:39:00Z,00040200,00000000,-000.43,0000.28,0000.16,0000.27,0000.20,0000.04,-000.01,0000.27,0000.28,17.9,24.5,04.3,02.9,0648.5,30.9
2021-03-18T13:40:00Z,00040200,00000000,0000.20,0000.28,0000.17,0000.57,0000.09,0000.01,0000.63,0000.41,0000.33,17.9,24.5,04.3,02.9,0648.6,30.9
2021-03-18T13:41:00Z,00040200,00000000,0000.40,0000.05,0000.03,0000.17,0000.10,-000.05,0000.33,0000.40,0000.30,17.9,24.5,04.5,03.0,0648.5,31.0
2021-03-18T13:42:00Z,00040200,00000000,-000.21,0000.28,0000.22,0000.31,0000.15,-000.01,-000.68,-001.00,-000.53,17.9,24.5,04.3,02.9,0648.5,31.0
2021-03-18T13:43:00Z,00040200,00000000,0000.42,0000.22,0000.25,-000.16,-000.02,0000.18,0000.33,0000.70,0000.27,17.9,24.5,04.2,02.8,0648.5,31.0
2021-03-18T13:44:00Z,00040200,00000000,-000.03,-000.21,0000.34,0000.47,0000.18,0000.08,-000.60,-001.07,-000.46,17.9,24.5,04.1,02.7,0648.4,31.0
2021-03-18T13:45:00Z,00040200,00000000,0000.69,0000.35,0000.09,-000.19,0000.01,-000.11,0000.69,0000.86,0000.55,17.9,24.5,04.0,02.7,0648.5,31.0
2021-03-18T13:46:00Z,00040200,00000000,0000.53,0000.25,0000.03,0000.18,0000.22,0000.05,0000.05,0000.20,-000.27,17.9,24.5,04.1,02.7,0648.5,31.0
2021-03-18T13:47:00Z,00040200,00000000,0000.24,0000.27,0000.13,0000.39,0000.17,0000.13,0000.38,0000.37,0000.39,17.9,24.5,04.1,02.8,0648.5,31.0
2021-03-18T13:48:00Z,00040200,00000000,0000.20,0000.05,-000.09,0000.01,-000.12,0000.08,-000.19,0000.23,0000.10,17.9,24.5,04.1,02.7,0648.5,31.0
2021-03-18T13:49:00Z,00040200,00000000,0000.56,0000.34,0000.56,-000.05,0000.27,0000.06,-000.32,-000.78,-000.21,17.8,24.4,04.2,02.8,0648.5,30.9
2021-03-18T13:50:00Z,00040200,00000000,0000.47,0000.11,-000.05,0000.14,0000.01,0000.02,0000.48,0000.63,0000.11,17.8,24.4,04.0,02.7,0648.5,30.9
2021-03-18T13:51:00Z,00040200,00000000,0000.77,0000.14,0000.38,0000.36,0000.27,0000.08,0000.29,0000.24,0000.35,17.8,24.4,04.2,02.8,0648.5,30.9
2021-03-18T13:52:00Z,00040200,00000000,0000.24,0000.27,0000.24,0000.15,-000.01,-000.03,0000.67,0000.44,0000.30,17.7,24.3,04.1,02.7,0648.4,30.9
2021-03-18T13:53:00Z,00040200,00000000,0000.55,0000.61,0000.07,0000.08,0000.23,0000.35,0000.20,0000.21,0000.39,17.7,24.3,04.2,02.8,0648.5,30.8
2021-03-18T13:54:00Z,00040200,00000000,0000.52,0000.02,0000.15,-000.27,0000.03,0000.10,-000.22,-000.35,0000.00,17.6,24.3,04.3,02.9,0648.4,30.8
2021-03-18T13:55:00Z,00040200,00000000,0001.28,0000.56,0000.29,0000.37,-000.03,0000.06,0000.12,0000.29,0000.27,17.5,24.3,04.1,02.7,0648.6,30.8
2021-03-18T13:56:00Z,00040200,00000000,0000.42,0000.09,0000.30,0000.02,-000.16,0000.14,-000.09,-000.05,-000.27,17.5,24.3,04.2,02.8,0648.5,30.8
2021-03-18T13:57:00Z,00040200,40000000,,,,,,,0001.30,0000.76,0000.19,17.5,24.3,04.3,02.8,0648.3,30.8
2021-03-18T13:58:00Z,00040200,60000000,,,,,,,-001.05,-000.14,-000.03,17.3,24.3,04.0,02.6,0647.5,30.8
2021-03-18T13:59:00Z,00040200,20000000,,,,,,,-000.45,-000.27,-000.63,17.2,24.4,04.0,02.6,0647.5,30.9
